Location: Peterborough
(44.3091°N, 78.3197°W)
Time: 17:41:54
(UTC-04:00)

Transit 4A - Pass Details

Date: 22 March 2023
Orbit: 864 x 980 km, 66.8° (Epoch: 04 June)

Event Time Altitude Azimuth Distance (km) Brightness Sun altitude
Rises 15:33:53 0° 332° (NNW) 3,542 10.8 37.3°
Reaches altitude 10° 15:36:45 10° 344° (NNW) 2,617 10.1 37.0°
Maximum altitude 15:41:59 29° 43° (NE) 1,651 9.0 36.3°
Drops below altitude 10° 15:47:19 10° 102° (ESE) 2,676 10.1 35.6°
Sets 15:50:16 0° 114° (ESE) 3,635 10.8 35.2°
